Ottumwa, IA

9:55 AM CDT on October 16, 2019 (GMT -0500)
Ottumwa Industrial

Weather History for KOTM - August, 2019

Change the Weather History Date:

Tuesday, August 13, 2019

  Actual Average Record
Temperature  
Mean Temperature 78 °F 74 °F  
Max Temperature 87 °F 84 °F 106 °F (1936)
Min Temperature 68 °F 63 °F 48 °F (1964)
Degree Days  
Heating Degree Days 0 0  
Month to date heating degree days 0 0  
Since 1 June heating degree days 4 23  
Since 1 July heating degree days 0 2  
Cooling Degree Days 13 9  
Month to date cooling degree days 124 119  
Year to date cooling degree days 771 698  
Since 1 June cooling degree days 708 634  
Growing Degree Days 28 (Base 50)    
Moisture  
Dew Point 69 °F    
Average Humidity 75    
Maximum Humidity 100    
Minimum Humidity 50    
Precipitation  
Precipitation 0.00 in 0.15 in 2.35 in (1974)
Month to date precipitation 0.77 1.89  
Year to date precipitation 27.29 23.98  
Sea Level Pressure  
Sea Level Pressure 29.89 in    
Wind  
Wind Speed 9 mph (NW)    
Max Wind Speed 20 mph    
Max Gust Speed 25 mph    
Visibility 7 miles    
Events Fog    
T = Trace of Precipitation, MM = Missing Value Source: NWS Daily Summary

Daily Weather History Graph

Daily Weather History Graph

Search for Another Location

Airport or City:

Astronomy

Aug. 13, 2019 Rise Set
Actual Time 6:17 AM CDT 8:11 PM CDT
Civil Twilight 5:47 AM CDT 8:41 PM CDT
Nautical Twilight 5:11 AM CDT 9:17 PM CDT
Astronomical Twilight 4:31 AM CDT 9:56 PM CDT
Moon 7:27 PM CDT (8/13) 4:18 AM CDT (8/13)
Length of Visible Light 14h 53m
Length of Day
13h 54m
Waxing Gibbous, 97% of the Moon is Illuminated
Aug 13
Waxing Gibbous
Aug 15
Full
Aug 23
Last Quarter
Aug 30
New
Sep 5
First Quarter

Hourly Weather History & Observations

Time (CDT) Temp. Heat Index Dew Point Humidity Pressure Visibility Wind Dir Wind Speed Gust Speed Precip Events Conditions
12:53 AM 73.0 °F - 71.1 °F 93% 29.81 in 10.0 mi NNW 8.1 mph - N/A   Clear
1:53 AM 72.0 °F - 70.0 °F 93% 29.81 in 8.0 mi NNW 6.9 mph - N/A   Clear
2:05 AM 72.0 °F - 70.0 °F 93% 29.84 in 7.0 mi NNW 8.1 mph - N/A   Scattered Clouds
2:10 AM 72.0 °F - 70.0 °F 93% 29.84 in 2.5 mi NNW 9.2 mph - N/A   Mostly Cloudy
2:15 AM 72.0 °F - 70.0 °F 93% 29.84 in 0.8 mi North 9.2 mph - N/A   Mist
2:32 AM 72.0 °F - 70.0 °F 93% 29.84 in 0.2 mi NNW 8.1 mph - N/A Fog Fog
2:48 AM 71.6 °F - 69.8 °F 94% 29.82 in 0.5 mi North 9.2 mph - N/A Fog Fog
2:53 AM 72.0 °F - 70.0 °F 93% 29.81 in 0.5 mi North 9.2 mph - N/A Fog Fog
3:29 AM 71.1 °F - 70.0 °F 96% 29.86 in 1.8 mi North 8.1 mph - N/A   Overcast
3:37 AM 72.0 °F - 71.1 °F 97% 29.87 in 2.5 mi North 8.1 mph - N/A   Overcast
3:48 AM 71.6 °F - 69.8 °F 94% 29.86 in 5.0 mi North 8.1 mph - N/A   Overcast
3:53 AM 71.1 °F - 70.0 °F 96% 29.84 in 8.0 mi NNW 8.1 mph - N/A   Overcast
4:53 AM 72.0 °F - 70.0 °F 93% 29.84 in 8.0 mi NNW 6.9 mph - N/A   Overcast
5:53 AM 71.1 °F - 69.1 °F 93% 29.86 in 6.0 mi NW 9.2 mph - N/A   Mostly Cloudy
6:45 AM 70.0 °F - 69.1 °F 97% 29.91 in 5.0 mi NW 6.9 mph - N/A   Overcast
6:53 AM 70.0 °F - 69.1 °F 97% 29.89 in 7.0 mi NW 5.8 mph - N/A   Overcast
7:53 AM 71.1 °F - 68.0 °F 90% 29.89 in 10.0 mi NW 4.6 mph - N/A   Overcast
8:53 AM 73.0 °F - 69.1 °F 87% 29.91 in 10.0 mi NW 8.1 mph - N/A   Overcast
9:53 AM 75.0 °F - 70.0 °F 84% 29.92 in 10.0 mi NW 11.5 mph - N/A   Overcast
10:43 AM 77.0 °F - 70.0 °F 79% 29.95 in 10.0 mi NNW 12.7 mph - N/A   Mostly Cloudy
10:53 AM 77.0 °F - 69.1 °F 76% 29.93 in 10.0 mi NNW 11.5 mph - N/A   Mostly Cloudy
11:53 AM 80.1 °F 83.2 °F 70.0 °F 71% 29.93 in 10.0 mi NNW 9.2 mph - N/A   Mostly Cloudy
12:21 PM 81.0 °F 84.4 °F 70.0 °F 69% 29.95 in 10.0 mi NNW 11.5 mph - N/A   Scattered Clouds
12:53 PM 82.0 °F 85.9 °F 70.0 °F 67% 29.93 in 10.0 mi NW 12.7 mph 21.9 mph N/A   Scattered Clouds
1:53 PM 82.9 °F 87.0 °F 70.0 °F 65% 29.92 in 9.0 mi NW 12.7 mph - N/A   Mostly Cloudy
2:53 PM 84.0 °F 89.0 °F 71.1 °F 65% 29.91 in 10.0 mi NNW 11.5 mph 21.9 mph N/A   Scattered Clouds
3:53 PM 87.1 °F 89.9 °F 66.9 °F 51% 29.91 in 10.0 mi NNW 18.4 mph 24.2 mph N/A   Partly Cloudy
4:53 PM 84.9 °F 86.6 °F 64.9 °F 51% 29.91 in 10.0 mi NW 16.1 mph - N/A   Clear
5:53 PM 84.9 °F 86.1 °F 64.0 °F 49% 29.92 in 8.0 mi NW 12.7 mph - N/A   Partly Cloudy
6:53 PM 82.0 °F 83.8 °F 64.9 °F 56% 29.91 in 10.0 mi NW 5.8 mph - N/A   Clear
7:53 PM 75.0 °F - 66.0 °F 73% 29.92 in 10.0 mi WNW 4.6 mph - N/A   Clear
8:53 PM 71.1 °F - 66.0 °F 84% 29.93 in 10.0 mi WNW 3.5 mph - N/A   Clear
9:53 PM 70.0 °F - 66.0 °F 87% 29.95 in 10.0 mi WSW 5.8 mph - N/A   Clear
10:53 PM 70.0 °F - 64.9 °F 84% 29.96 in 10.0 mi WSW 5.8 mph - N/A   Clear
11:53 PM 69.1 °F - 64.0 °F 84% 29.97 in 10.0 mi West 5.8 mph - N/A   Partly Cloudy